Weather History for KNYL - November, 2011

Change the Weather History Date:

Sunday, November 27, 2011

  Actual Average Record
Temperature  
Mean Temperature 66 °F 61 °F  
Max Temperature 79 °F 73 °F 88 °F (1950)
Min Temperature 52 °F 50 °F 31 °F (1880)
Degree Days  
Heating Degree Days 0 4  
Month to date heating degree days 51 50  
Since 1 July heating degree days 51 52  
Cooling Degree Days 1 1  
Month to date cooling degree days 21 86  
Year to date cooling degree days 4685 4648  
Growing Degree Days 6 (Base 50)    
Moisture  
Dew Point 20 °F    
Average Humidity 20    
Maximum Humidity 29    
Minimum Humidity 11    
Precipitation  
Precipitation 0.00 in 0.01 in 0.14 in (1919)
Month to date precipitation 0.42 0.18  
Year to date precipitation 1.84 3.01  
Sea Level Pressure  
Sea Level Pressure 30.29 in    
Wind  
Wind Speed 8 mph (NNE)    
Max Wind Speed 21 mph    
Max Gust Speed 24 mph    
Visibility 10 miles    
Events      
T = Trace of Precipitation, MM = Missing Value Source: NWS Daily Summary

Daily Weather History Graph

Daily Weather History Graph

Search for Another Location

Airport or City:

Trip Planner

Search our weather history database for the weather conditions in past years. The results will help you decide how hot, cold, wet, or windy it might be!

Date:

Astronomy

Nov. 27, 2011 Rise Set
Actual Time 7:18 AM MST 5:32 PM MST
Civil Twilight 6:52 AM MST 5:59 PM MST
Nautical Twilight 6:22 AM MST 6:29 PM MST
Astronomical Twilight 5:52 AM MST 6:59 PM MST
Moon 9:45 AM MST (11/27) 8:16 PM MST (11/27)
Length of Visible Light 11h 07m
Length of Day
10h 13m
Waxing Crescent, 9% of the Moon is Illuminated
Nov 27
Waxing Crescent
Dec 2
First Quarter
Dec 10
Full
Dec 17
Last Quarter
Dec 24
New

Hourly Weather History & Observations

Time (MST) Temp. Dew Point Humidity Pressure Visibility Wind Dir Wind Speed Gust Speed Precip Events Conditions
12:55 AM 63.0 °F 17.1 °F 17% 30.30 in 10.0 mi North 6.9 mph - N/A   Clear
1:55 AM 63.0 °F 16.0 °F 16% 30.30 in 10.0 mi North 10.4 mph - N/A   Clear
2:55 AM 59.0 °F 18.0 °F 20% 30.30 in 10.0 mi NNE 8.1 mph - N/A   Clear
3:55 AM 57.9 °F 19.0 °F 22% 30.30 in 10.0 mi NNE 6.9 mph - N/A   Clear
4:55 AM 55.9 °F 19.9 °F 25% 30.30 in 10.0 mi East 5.8 mph - N/A   Clear
5:00 AM 32.0 °F 32.0 °F 100% - - North - - N/A   Unknown
5:55 AM 54.0 °F 21.0 °F 28% 30.32 in 10.0 mi NNE 5.8 mph - N/A   Clear
6:55 AM 53.1 °F 21.9 °F 30% 30.34 in 10.0 mi North 3.5 mph - N/A   Clear
7:55 AM 54.0 °F 23.0 °F 30% 30.36 in 10.0 mi NE 4.6 mph - N/A   Clear
8:55 AM 61.0 °F 19.9 °F 21% 30.37 in 10.0 mi NNE 18.4 mph - N/A   Clear
9:55 AM 64.9 °F 19.9 °F 18% 30.36 in 10.0 mi NE 13.8 mph - N/A   Clear
10:55 AM 69.1 °F 19.0 °F 15% 30.37 in 10.0 mi NE 13.8 mph 20.7 mph N/A   Clear
11:55 AM 73.0 °F 17.1 °F 12% 30.35 in 10.0 mi NE 15.0 mph - N/A   Clear
12:55 PM 75.9 °F 17.1 °F 11% 30.32 in 10.0 mi ENE 15.0 mph 20.7 mph N/A   Clear
1:55 PM 77.0 °F 21.0 °F 12% 30.29 in 10.0 mi ENE 12.7 mph - N/A   Clear
2:55 PM 79.0 °F 19.9 °F 11% 30.27 in 10.0 mi ENE 10.4 mph - N/A   Clear
3:55 PM 79.0 °F 21.0 °F 12% 30.26 in 10.0 mi ENE 6.9 mph - N/A   Clear
4:55 PM 77.0 °F 21.0 °F 12% 30.24 in 10.0 mi ENE 5.8 mph - N/A   Clear
5:55 PM 70.0 °F 26.1 °F 19% 30.25 in 10.0 mi North 3.5 mph - N/A   Clear
6:55 PM 66.9 °F 26.1 °F 21% 30.26 in 10.0 mi North 5.8 mph - N/A   Clear
7:55 PM 66.9 °F 15.1 °F 14% 30.25 in 10.0 mi North 6.9 mph - N/A   Clear
8:55 PM 64.0 °F 14.0 °F 14% 30.25 in 10.0 mi North 5.8 mph - N/A   Clear
9:55 PM 62.1 °F 16.0 °F 17% 30.25 in 10.0 mi North 8.1 mph - N/A   Clear
10:55 PM 60.1 °F 17.1 °F 19% 30.24 in 10.0 mi NNE 3.5 mph - N/A   Clear
11:55 PM 57.9 °F 21.0 °F 24% 30.23 in 10.0 mi North 4.6 mph - N/A   Clear